Home   Weather   St. Croix Falls   Past weeks

Flag for USA Past Weather in St. Croix Falls, Wisconsin, USA — Yesterday and Last 2 Weeks

Now
38 °F

Clear.


Feels Like: 29 °F
Forecast: 19 / 34 °F
Wind: 15 mph from West

Location: L O Simenstad Municipal Airport

Current Time: Nov 21, 2017 at 2:02:59 am

Latest Report: Nov 21, 2017 at 1:15 am


Visibility: 10 mi

Pressure: 29.56 "Hg

Humidity: 61%

Dew Point: 25 °F

Location of St. Croix FallsLocation

Past Weather in St. Croix Falls — Graph

°F

St. Croix Falls Temperature Yesterday

Maximum temperature yesterday: 44 °F (at 2:55 pm)
Minimum temperature yesterday: 24 °F (at 12:55 am)
Average temperature yesterday: 36 °F

High & Low Weather Summary for the Past Weeks

 TemperatureHumidityPressure
High44 °F (Nov 20, 2:55 pm)100% (Nov 6, 7:15 am)30.65 "Hg (Nov 6, 7:15 am)
Low5 °F (Nov 10, 5:15 am)39% (Nov 7, 1:35 pm)29.44 "Hg (Nov 20, 4:35 pm)
Average29 °F78%30.14 "Hg
* Reported Nov 6 12:35 am — Nov 21 12:55 am, St. Croix Falls. Weather by CustomWeather, © 2017

Note: Actual official high and low records may vary slightly from our data, if they occured in-between our weather recording intervals... More about our weather records

Advertising

St. Croix Falls Weather History for the Previous 24 Hours

Scroll right to see more
 ConditionsComfort  
Time TempWeatherWind HumidityBarometerVisibility
12:55 am
Tue, Nov 21
39 °FClear.10 mph62%29.55 "Hg10 mi
12:35 am39 °FClear.17 mph64%29.54 "Hg10 mi
12:15 am40 °FClear.13 mph63%29.53 "Hg10 mi
11:55 pm
Mon, Nov 20
40 °FClear.12 mph64%29.52 "Hg10 mi
11:35 pm41 °FClear.13 mph62%29.51 "Hg10 mi
11:15 pm42 °FClear.13 mph59%29.50 "Hg10 mi
10:55 pm42 °FClear.14 mph59%29.50 "Hg10 mi
10:35 pm42 °FClear.12 mph59%29.50 "Hg10 mi
10:15 pm41 °FClear.12 mph59%29.49 "Hg10 mi
9:55 pm41 °FClear.10 mph60%29.47 "Hg10 mi
9:35 pm40 °FClear.10 mph62%29.47 "Hg10 mi
9:15 pm39 °FClear.9 mph65%29.47 "Hg10 mi
8:55 pm39 °FClear.8 mph65%29.47 "Hg10 mi
8:35 pm40 °FClear.10 mph64%29.47 "Hg10 mi
8:15 pm40 °FClear.9 mph64%29.47 "Hg10 mi
7:35 pm40 °FClear.9 mph66%29.45 "Hg10 mi
7:15 pm39 °FClear.8 mph69%29.45 "Hg10 mi
6:55 pm38 °FClear.8 mph72%29.46 "Hg10 mi
6:15 pm37 °FClear.5 mph75%29.47 "Hg10 mi
5:55 pm38 °FClear.5 mph73%29.46 "Hg10 mi
5:35 pm42 °FClear.5 mph65%29.45 "Hg10 mi
4:55 pm43 °FClear.8 mph62%29.45 "Hg10 mi
4:35 pm43 °FSunny.5 mph62%29.44 "Hg10 mi
4:15 pm43 °FSunny.9 mph61%29.45 "Hg10 mi
3:55 pm43 °FSunny.8 mph62%29.47 "Hg10 mi
3:35 pm43 °FSunny.8 mph60%29.46 "Hg10 mi
3:15 pm43 °FSunny.8 mph60%29.47 "Hg10 mi
2:55 pm44 °FSunny.10 mph60%29.47 "Hg10 mi
2:35 pm43 °FSunny.9 mph60%29.47 "Hg10 mi
2:15 pm43 °FSunny.12 mph60%29.47 "Hg10 mi
1:55 pm43 °FSunny.10 mph60%29.47 "Hg10 mi
1:35 pm43 °FSunny.12 mph60%29.48 "Hg10 mi
1:15 pm43 °FSunny.12 mph59%29.49 "Hg10 mi
12:55 pm42 °FSunny.6 mph60%29.52 "Hg10 mi
12:35 pm42 °FSunny.9 mph61%29.51 "Hg10 mi
12:15 pm41 °FSunny.8 mph62%29.51 "Hg10 mi
11:55 am41 °FSunny.10 mph62%29.53 "Hg10 mi
11:35 am40 °FSunny.12 mph64%29.55 "Hg10 mi
11:15 am40 °FSunny.7 mph64%29.57 "Hg10 mi
10:55 am40 °FSunny.8 mph68%29.58 "Hg10 mi
10:35 am38 °FSunny.8 mph71%29.59 "Hg10 mi
10:15 am38 °FSunny.8 mph71%29.61 "Hg10 mi
9:55 am37 °FSunny.8 mph73%29.60 "Hg10 mi
9:35 am36 °FSunny.9 mph77%29.61 "Hg10 mi
9:15 am34 °FSunny.9 mph79%29.63 "Hg10 mi
8:55 am33 °FSunny.9 mph81%29.65 "Hg10 mi
8:35 am32 °FSunny.7 mph83%29.66 "Hg10 mi
7:55 am31 °FSunny.7 mph85%29.67 "Hg10 mi
7:35 am30 °FSunny.5 mph83%29.68 "Hg10 mi
7:15 am29 °FSunny.3 mph88%29.69 "Hg10 mi
6:55 am29 °FClear.No wind85%29.69 "Hg10 mi
6:35 am31 °FClear.6 mph82%29.71 "Hg10 mi
5:55 am32 °FClear.5 mph82%29.71 "Hg10 mi
5:35 am31 °FClear.6 mph84%29.72 "Hg10 mi
5:15 am30 °FClear.6 mph85%29.72 "Hg10 mi
4:55 am31 °FClear.5 mph85%29.73 "Hg10 mi
4:35 am31 °FClear.5 mph84%29.74 "Hg10 mi
4:15 am29 °FClear.5 mph86%29.74 "Hg10 mi
3:55 am29 °FClear.5 mph86%29.74 "Hg10 mi
3:35 am29 °FClear.5 mph85%29.76 "Hg10 mi
2:55 am28 °FClear.5 mph90%29.78 "Hg10 mi
2:35 am28 °FClear.3 mph81%29.79 "Hg10 mi
Weather by CustomWeather, © 2017

See weather overview